Northolt, United Kingdom

11:35 PM GMT on February 09, 2016 (GMT +0000)
Northolt Air Base

Weather History for EGWU - June, 2014

Change the Weather History Date:

Wednesday, June 4, 2014

  Actual Average Record
Temperature  
Mean Temperature 52 °F -  
Max Temperature 57 °F 68 °F 77 °F (2011)
Min Temperature 46 °F 52 °F 42 °F (2015)
Degree Days  
Heating Degree Days 14    
Growing Degree Days 2 (Base 50)    
Moisture  
Dew Point 48 °F    
Average Humidity 79    
Maximum Humidity 94    
Minimum Humidity 51    
Precipitation  
Precipitation 0.08 in - - ()
Sea Level Pressure  
Sea Level Pressure 29.67 in    
Wind  
Wind Speed 6 mph ()    
Max Wind Speed 22 mph    
Max Gust Speed -    
Visibility 9.6 miles    
Events Rain    
Averages and records for this station are not official NWS values.
T = Trace of Precipitation, MM = Missing Value Source: Averaged Metar Reports

Daily Weather History Graph

Daily Weather History Graph

Search for Another Location

Airport or City:

Trip Planner

Search our weather history database for the weather conditions in past years. The results will help you decide how hot, cold, wet, or windy it might be!

Date:

Astronomy

Jun. 04, 2014 Rise Set
Actual Time 4:47 AM BST 9:12 PM BST
Civil Twilight 4:01 AM BST 9:58 PM BST
Nautical Twilight 2:52 AM BST 11:08 PM BST
Astronomical Twilight 1:32 AM BST 12:27 AM BST
Moon 11:25 AM BST (6/4) 12:34 AM BST (6/4)
Length of Visible Light 17h 57m
Length of Day
16h 24m
Waxing Crescent, 37% of the Moon is Illuminated
Jun 4
Waxing Crescent
Jun 5
First Quarter
Jun 13
Full
Jun 19
Last Quarter
Jun 27
New

Hourly Weather History & Observations

Time (BST) Temp. Windchill Dew Point Humidity Pressure Visibility Wind Dir Wind Speed Gust Speed Precip Events Conditions
12:00 AM 55 °F - 50 °F 79% 29.79 in 19 mi WSW 2.3 mph - -   Partly Cloudy
12:50 AM 53.6 °F - 50.0 °F 88% 29.77 in 6.2 mi SSW 4.6 mph - N/A   Mostly Cloudy
1:00 AM 54 °F - 49 °F 79% 29.77 in 19 mi SSW 4.6 mph - -   Mostly Cloudy
1:50 AM 53.6 °F - 50.0 °F 88% 29.74 in 6.2 mi SSW 4.6 mph - N/A   Mostly Cloudy
2:00 AM 53 °F - 49 °F 84% 29.75 in 19 mi SSW 4.6 mph - -   Scattered Clouds
2:50 AM 53.6 °F - 50.0 °F 88% 29.71 in 6.2 mi South 3.5 mph - N/A   Mostly Cloudy
3:00 AM 53 °F - 50 °F 86% 29.73 in 17 mi South 3.5 mph - -   Scattered Clouds
3:50 AM 53.6 °F - 50.0 °F 88% 29.68 in 6.2 mi South 2.3 mph - N/A   Mostly Cloudy
4:00 AM 53 °F - 51 °F 89% 29.71 in 14 mi South 2.3 mph - -   Scattered Clouds
4:50 AM 53.6 °F - 51.8 °F 94% 29.68 in 1.5 mi South 6.9 mph - N/A   Scattered Clouds
5:00 AM 53 °F - 51 °F 92% 29.70 in 1 mi South 6.9 mph - -   Partly Cloudy
5:50 AM 53.6 °F - 51.8 °F 94% 29.68 in 4.3 mi South 5.8 mph - N/A   Mostly Cloudy
6:00 AM 53 °F - 52 °F 94% 29.68 in 4 mi South 5.8 mph - -   Partly Cloudy
6:50 AM 51.8 °F - 50.0 °F 94% 29.65 in 6.2 mi WSW 5.8 mph - N/A Rain Light Rain
7:00 AM 53 °F - 51 °F 88% 29.67 in 9 mi WSW 5.8 mph - - Rain Light Rain
7:50 AM 53.6 °F - 50.0 °F 88% 29.65 in 6.2 mi West 5.8 mph - N/A Rain Light Rain
8:00 AM 53 °F - 50 °F 87% 29.66 in 16 mi West 5.8 mph - - Rain Light Rain
8:50 AM 53.6 °F - 50.0 °F 88% 29.65 in 6.2 mi West 3.5 mph - N/A Rain Light Rain
9:00 AM 54 °F - 51 °F 84% 29.65 in 19 mi West 3.5 mph - - Rain Light Rain
9:50 AM 55.4 °F - 50.0 °F 82% 29.62 in 6.2 mi South 4.6 mph - N/A   Mostly Cloudy
10:00 AM 56 °F - 49 °F 72% 29.64 in 22 mi South 4.6 mph - - Rain Light Rain
10:50 AM 55.4 °F - 50.0 °F 82% 29.62 in 6.2 mi West 5.8 mph - N/A   Mostly Cloudy
11:00 AM 55 °F - 50 °F 76% 29.63 in 19 mi West 5.8 mph - - Rain Light Rain Showers
11:50 AM 55.4 °F - 50.0 °F 82% 29.62 in 6.2 mi WSW 6.9 mph - N/A   Mostly Cloudy
12:00 PM 55 °F - 50 °F 76% 29.62 in 22 mi WSW 6.9 mph - - Rain Light Rain Showers
12:50 PM 55.4 °F - 48.2 °F 77% 29.62 in 5.0 mi WSW 8.1 mph - N/A Rain Rain Showers
1:00 PM 55 °F - 49 °F 74% 29.63 in 5 mi WSW 8.1 mph - - Rain Heavy Rain Showers
1:50 PM 55.4 °F - 50.0 °F 82% 29.62 in 6.2 mi West 5.8 mph - N/A   Mostly Cloudy
2:00 PM 56 °F - 50 °F 73% 29.62 in 25 mi West 5.8 mph - - Rain Light Rain Showers
2:50 PM 53.6 °F - 51.8 °F 94% 29.62 in 6.2 mi WSW 9.2 mph - N/A Rain Light Rain Showers
3:00 PM 54 °F - 51 °F 86% 29.63 in 7 mi WSW 9.2 mph - - Rain Light Rain Showers
3:50 PM 53.6 °F - 50.0 °F 88% 29.62 in 6.2 mi WSW 13.8 mph - N/A   Scattered Clouds
4:00 PM 54 °F - 49 °F 79% 29.65 in 19 mi WSW 13.8 mph - - Rain Light Rain Showers
4:50 PM 55.4 °F - 42.8 °F 63% 29.65 in 6.2 mi West 21.9 mph - N/A   Scattered Clouds
5:00 PM 56 °F - 44 °F 53% 29.65 in 25 mi West 21.9 mph - -   Partly Cloudy
5:50 PM 57.2 °F - 44.6 °F 63% 29.65 in 6.2 mi West 15.0 mph - N/A   Scattered Clouds
6:00 PM 56 °F - 44 °F 54% 29.66 in 31 mi West 15.0 mph - -   Partly Cloudy
6:50 PM 53.6 °F - 42.8 °F 67% 29.65 in 6.2 mi West 11.5 mph - N/A   Partly Cloudy
7:00 PM 54 °F - 43 °F 55% 29.66 in 31 mi West 11.5 mph - -   Partly Cloudy
7:50 PM 55.4 °F - 41.0 °F 58% 29.65 in 6.2 mi West 15.0 mph - N/A   Partly Cloudy
8:00 PM 54 °F - 41 °F 51% 29.68 in 31 mi West 15.0 mph - -   Scattered Clouds
8:50 PM 50.0 °F - 39.2 °F 66% 29.68 in 6.2 mi SW 10.4 mph - N/A   Mostly Cloudy
9:00 PM 50 °F - 40 °F 59% 29.70 in 19 mi SW 10.4 mph - -   Mostly Cloudy
9:50 PM 48.2 °F - 42.8 °F 82% 29.68 in - WSW 6.9 mph - N/A   Clear
10:00 PM 47 °F - 42 °F 79% 29.70 in 19 mi WSW 6.9 mph - -   Scattered Clouds
10:50 PM 46.4 °F 43.5 °F 42.8 °F 87% 29.68 in - SW 5.8 mph - N/A   Clear
11:00 PM 47 °F - 43 °F 79% 29.70 in 19 mi SW 5.8 mph - -   Clear
11:50 PM 46.4 °F 43.5 °F 44.6 °F 93% 29.68 in 6.2 mi SW 5.8 mph - N/A Rain Light Rain